| time (UTC) | temp C | wind direction | speed KPH | gust KPH | rain 1hr cm | rain 24hr cm | rain mn cm | humidity % | barometer mb |
| 20260505032126 | 18 | 124 | 0.0 | 0.0 | 0.00 | 0.00 | 0.00 | 42 | 1015.9 |
| 20260505031624 | 18 | 118 | 0.0 | 0.0 | 0.00 | 0.00 | 0.00 | 41 | 1016.0 |
| 20260505031120 | 18 | 119 | 0.0 | 0.0 | 0.00 | 0.00 | 0.00 | 41 | 1015.7 |
| 20260505030617 | 18 | 109 | 0.0 | 1.6 | 0.00 | 0.00 | 0.00 | 40 | 1015.6 |
| 20260505030113 | 18 | 107 | 0.0 | 0.0 | 0.00 | 0.00 | 0.00 | 39 | 1015.9 |
| 20260505025609 | 19 | 113 | 0.0 | 0.0 | 0.00 | 0.00 | 0.00 | 39 | 1015.9 |
| 20260505025108 | 19 | 140 | 0.0 | 1.6 | 0.00 | 0.00 | 0.00 | 38 | 1016.0 |
| 20260505024605 | 19 | 86 | 0.0 | 1.6 | 0.00 | 0.00 | 0.00 | 38 | 1015.8 |
| 20260505024102 | 20 | 94 | 0.0 | 1.6 | 0.00 | 0.00 | 0.00 | 37 | 1015.8 |
| 20260505023559 | 20 | 81 | 0.0 | 1.6 | 0.00 | 0.00 | 0.00 | 37 | 1015.8 |
| 20260505023057 | 20 | 75 | 0.0 | 0.0 | 0.00 | 0.00 | 0.00 | 36 | 1015.7 |
| 20260505022554 | 20 | 82 | 1.6 | 1.6 | 0.00 | 0.00 | 0.00 | 35 | 1015.6 |
| 20260505022051 | 20 | 184 | 0.0 | 0.0 | 0.00 | 0.00 | 0.00 | 35 | 1015.5 |
| 20260505021547 | 20 | 184 | 0.0 | 3.2 | 0.00 | 0.00 | 0.00 | 34 | 1015.7 |
| 20260505021044 | 20 | 118 | 1.6 | 1.6 | 0.00 | 0.00 | 0.00 | 34 | 1015.4 |
| 20260505020544 | 20 | 184 | 3.2 | 3.2 | 0.00 | 0.00 | 0.00 | 34 | 1015.3 |
| 20260505020041 | 20 | 93 | 0.0 | 1.6 | 0.00 | 0.00 | 0.00 | 35 | 1015.6 |
| 20260505015538 | 20 | 93 | 0.0 | 0.0 | 0.00 | 0.00 | 0.00 | 35 | 1015.4 |
| 20260505015035 | 20 | 112 | 0.0 | 1.6 | 0.00 | 0.00 | 0.00 | 35 | 1015.4 |
| 20260505014532 | 20 | 113 | 0.0 | 0.0 | 0.00 | 0.00 | 0.00 | 35 | 1015.2 |
| 20260505014029 | 20 | 104 | 0.0 | 4.8 | 0.00 | 0.00 | 0.00 | 36 | 1015.4 |
| 20260505013526 | 20 | 93 | 0.0 | 1.6 | 0.00 | 0.00 | 0.00 | 35 | 1015.2 |
| 20260505013024 | 20 | 92 | 0.0 | 1.6 | 0.00 | 0.00 | 0.00 | 35 | 1015.0 |
| 20260505012522 | 20 | 94 | 0.0 | 0.0 | 0.00 | 0.00 | 0.00 | 34 | 1015.0 |
| 20260505012018 | 20 | 95 | 0.0 | 0.0 | 0.00 | 0.00 | 0.00 | 34 | 1014.9 |
| 20260505011513 | 20 | 94 | 0.0 | 1.6 | 0.00 | 0.00 | 0.00 | 33 | 1015.0 |
| 20260505011011 | 20 | 100 | 0.0 | 0.0 | 0.00 | 0.00 | 0.00 | 33 | 1015.0 |
| 20260505010506 | 21 | 100 | 0.0 | 0.0 | 0.00 | 0.00 | 0.00 | 33 | 1015.0 |
| 20260505010003 | 21 | 62 | 0.0 | 1.6 | 0.00 | 0.00 | 0.00 | 32 | 1014.9 |
| 20260505005459 | 21 | 62 | 0.0 | 0.0 | 0.00 | 0.00 | 0.00 | 33 | 1014.7 |
| 20260505004957 | 21 | 59 | 0.0 | 0.0 | 0.00 | 0.00 | 0.00 | 32 | 1014.8 |
| 20260505004454 | 21 | 51 | 0.0 | 1.6 | 0.00 | 0.00 | 0.00 | 32 | 1014.7 |
| 20260505003951 | 21 | 137 | 0.0 | 1.6 | 0.00 | 0.00 | 0.00 | 32 | 1014.6 |
| 20260505003448 | 21 | 92 | 0.0 | 1.6 | 0.00 | 0.00 | 0.00 | 32 | 1014.6 |
| 20260505002944 | 22 | 55 | 0.0 | 0.0 | 0.00 | 0.00 | 0.00 | 32 | 1014.5 |
| 20260505002440 | 22 | 55 | 0.0 | 1.6 | 0.00 | 0.00 | 0.00 | 31 | 1014.6 |
| 20260505001939 | 22 | 112 | 0.0 | 0.0 | 0.00 | 0.00 | 0.00 | 32 | 1014.6 |
| 20260505001436 | 22 | 118 | 0.0 | 1.6 | 0.00 | 0.00 | 0.00 | 31 | 1014.4 |
| 20260505000933 | 22 | 146 | 0.0 | 1.6 | 0.00 | 0.00 | 0.00 | 31 | 1014.6 |
| 20260505000431 | 22 | 182 | 0.0 | 1.6 | 0.00 | 0.00 | 0.00 | 30 | 1014.3 |
| 20260504235927 | 23 | 199 | 0.0 | 1.6 | 0.00 | 0.00 | 0.00 | 29 | 1014.5 |
| 20260504235425 | 23 | 49 | 0.0 | 1.6 | 0.00 | 0.00 | 0.00 | 29 | 1014.2 |
| 20260504234921 | 23 | 49 | 0.0 | 1.6 | 0.00 | 0.00 | 0.00 | 28 | 1014.2 |
| 20260504234419 | 23 | 104 | 1.6 | 1.6 | 0.00 | 0.00 | 0.00 | 28 | 1014.2 |
| 20260504233915 | 23 | 32 | 0.0 | 1.6 | 0.00 | 0.00 | 0.00 | 28 | 1014.0 |
| 20260504233411 | 23 | 74 | 1.6 | 1.6 | 0.00 | 0.00 | 0.00 | 27 | 1013.9 |
| 20260504232908 | 23 | 130 | 0.0 | 1.6 | 0.00 | 0.00 | 0.00 | 29 | 1013.9 |
| 20260504232405 | 23 | 112 | 1.6 | 1.6 | 0.00 | 0.00 | 0.00 | 28 | 1013.9 |
| 20260504231902 | 23 | 90 | 1.6 | 3.2 | 0.00 | 0.00 | 0.00 | 28 | 1013.9 |
| 20260504231358 | 23 | 115 | 1.6 | 1.6 | 0.00 | 0.00 | 0.00 | 30 | 1014.0 |
| 20260504230854 | 23 | 74 | 0.0 | 3.2 | 0.00 | 0.00 | 0.00 | 28 | 1013.8 |
| 20260504230352 | 24 | 133 | 1.6 | 4.8 | 0.00 | 0.00 | 0.00 | 28 | 1014.0 |
| 20260504225850 | 24 | 157 | 4.8 | 9.7 | 0.00 | 0.00 | 0.00 | 27 | 1013.9 |
| 20260504225346 | 24 | 166 | 1.6 | 3.2 | 0.00 | 0.00 | 0.00 | 27 | 1013.8 |
| 20260504224844 | 24 | 123 | 0.0 | 1.6 | 0.00 | 0.00 | 0.00 | 27 | 1013.8 |
| 20260504224341 | 24 | 106 | 0.0 | 1.6 | 0.00 | 0.00 | 0.00 | 26 | 1013.8 |
| 20260504223837 | 25 | 85 | 0.0 | 1.6 | 0.00 | 0.00 | 0.00 | 26 | 1013.9 |
| 20260504223333 | 25 | 86 | 0.0 | 3.2 | 0.00 | 0.00 | 0.00 | 26 | 1013.9 |
| 20260504222830 | 25 | 9 | 1.6 | 1.6 | 0.00 | 0.00 | 0.00 | 24 | 1013.8 |
| 20260504222327 | 25 | 340 | 1.6 | 3.2 | 0.00 | 0.00 | 0.00 | 24 | 1013.8 |
| 20260504221825 | 25 | 140 | 0.0 | 1.6 | 0.00 | 0.00 | 0.00 | 24 | 1013.9 |
| 20260504221321 | 25 | 100 | 0.0 | 3.2 | 0.00 | 0.00 | 0.00 | 24 | 1013.9 |
| 20260504220818 | 25 | 92 | 3.2 | 4.8 | 0.00 | 0.00 | 0.00 | 21 | 1013.8 |
| 20260504220315 | 25 | 144 | 0.0 | 1.6 | 0.00 | 0.00 | 0.00 | 23 | 1014.1 |
| 20260504215813 | 25 | 170 | 0.0 | 4.8 | 0.00 | 0.00 | 0.00 | 24 | 1013.7 |
| 20260504215309 | 25 | 104 | 1.6 | 1.6 | 0.00 | 0.00 | 0.00 | 24 | 1013.9 |
| 20260504214805 | 25 | 160 | 0.0 | 1.6 | 0.00 | 0.00 | 0.00 | 24 | 1013.9 |
| 20260504214302 | 25 | 48 | 0.0 | 1.6 | 0.00 | 0.00 | 0.00 | 23 | 1013.9 |
| 20260504213758 | 25 | 91 | 0.0 | 3.2 | 0.00 | 0.00 | 0.00 | 23 | 1014.0 |
| 20260504213254 | 25 | 287 | 3.2 | 4.8 | 0.00 | 0.00 | 0.00 | 24 | 1013.9 |
| 20260504212752 | 25 | 172 | 0.0 | 3.2 | 0.00 | 0.00 | 0.00 | 23 | 1013.9 |
| 20260504212248 | 25 | 267 | 1.6 | 3.2 | 0.00 | 0.00 | 0.00 | 23 | 1014.0 |
| 20260504211746 | 25 | 359 | 0.0 | 1.6 | 0.00 | 0.00 | 0.00 | 23 | 1014.0 |
| 20260504211241 | 25 | 179 | 1.6 | 4.8 | 0.00 | 0.00 | 0.00 | 23 | 1014.1 |
| 20260504210739 | 25 | 135 | 0.0 | 3.2 | 0.00 | 0.00 | 0.00 | 23 | 1014.0 |
| 20260504210236 | 25 | 210 | 1.6 | 3.2 | 0.00 | 0.00 | 0.00 | 23 | 1014.0 |
| 20260504205733 | 25 | 90 | 1.6 | 3.2 | 0.00 | 0.00 | 0.00 | 23 | 1014.1 |
| 20260504205231 | 25 | 127 | 1.6 | 3.2 | 0.00 | 0.00 | 0.00 | 24 | 1014.2 |
| 20260504204729 | 25 | 184 | 0.0 | 1.6 | 0.00 | 0.00 | 0.00 | 24 | 1014.2 |
| 20260504204227 | 25 | 87 | 1.6 | 1.6 | 0.00 | 0.00 | 0.00 | 23 | 1014.1 |
| 20260504203726 | 25 | 246 | 1.6 | 4.8 | 0.00 | 0.00 | 0.00 | 22 | 1014.1 |
| 20260504203223 | 25 | 251 | 0.0 | 4.8 | 0.00 | 0.00 | 0.00 | 25 | 1014.5 |
| 20260504202723 | 25 | 98 | 0.0 | 9.7 | 0.00 | 0.00 | 0.00 | 23 | 1014.3 |
| 20260504202221 | 25 | 86 | 0.0 | 1.6 | 0.00 | 0.00 | 0.00 | 23 | 1014.4 |
| 20260504201718 | 25 | 87 | 0.0 | 4.8 | 0.00 | 0.00 | 0.00 | 21 | 1014.6 |
| 20260504201215 | 25 | 171 | 0.0 | 3.2 | 0.00 | 0.00 | 0.00 | 21 | 1014.6 |
| 20260504200712 | 25 | 114 | 0.0 | 3.2 | 0.00 | 0.00 | 0.00 | 21 | 1014.8 |
| 20260504200208 | 25 | 252 | 3.2 | 4.8 | 0.00 | 0.00 | 0.00 | 21 | 1014.8 |
| 20260504195705 | 25 | 210 | 1.6 | 3.2 | 0.00 | 0.00 | 0.00 | 24 | 1014.7 |
| 20260504195201 | 25 | 127 | 0.0 | 3.2 | 0.00 | 0.00 | 0.00 | 23 | 1014.7 |
| 20260504194658 | 25 | 20 | 1.6 | 3.2 | 0.00 | 0.00 | 0.00 | 22 | 1014.8 |
| 20260504194154 | 25 | 139 | 0.0 | 4.8 | 0.00 | 0.00 | 0.00 | 23 | 1014.9 |
| 20260504193650 | 25 | 113 | 0.0 | 1.6 | 0.00 | 0.00 | 0.00 | 22 | 1014.9 |
| 20260504193148 | 26 | 89 | 3.2 | 3.2 | 0.00 | 0.00 | 0.00 | 21 | 1014.9 |
| 20260504192646 | 25 | 349 | 1.6 | 1.6 | 0.00 | 0.00 | 0.00 | 23 | 1015.0 |
| 20260504192144 | 25 | 114 | 3.2 | 4.8 | 0.00 | 0.00 | 0.00 | 21 | 1014.9 |
| 20260504191642 | 26 | 270 | 1.6 | 4.8 | 0.00 | 0.00 | 0.00 | 22 | 1015.0 |
| 20260504191138 | 26 | 112 | 1.6 | 1.6 | 0.00 | 0.00 | 0.00 | 24 | 1015.3 |
| 20260504190634 | 26 | 102 | 3.2 | 3.2 | 0.00 | 0.00 | 0.00 | 23 | 1015.3 |
| 20260504190131 | 26 | 192 | 3.2 | 3.2 | 0.00 | 0.00 | 0.00 | 21 | 1015.2 |
| 20260504185627 | 26 | 129 | 1.6 | 4.8 | 0.00 | 0.00 | 0.00 | 21 | 1015.4 |
| 20260504185124 | 25 | 282 | 0.0 | 3.2 | 0.00 | 0.00 | 0.00 | 25 | 1015.4 |
| 20260504184620 | 26 | 255 | 1.6 | 9.7 | 0.00 | 0.00 | 0.00 | 24 | 1015.4 |
| 20260504184115 | 26 | 271 | 1.6 | 3.2 | 0.00 | 0.00 | 0.00 | 24 | 1015.4 |
| 20260504183613 | 26 | 205 | 0.0 | 4.8 | 0.00 | 0.00 | 0.00 | 25 | 1015.5 |
| 20260504183110 | 26 | 302 | 3.2 | 4.8 | 0.00 | 0.00 | 0.00 | 24 | 1015.6 |
| 20260504182608 | 26 | 236 | 3.2 | 3.2 | 0.00 | 0.00 | 0.00 | 26 | 1015.8 |
| 20260504182105 | 25 | 15 | 0.0 | 1.6 | 0.00 | 0.00 | 0.00 | 25 | 1015.8 |
| 20260504181602 | 25 | 207 | 0.0 | 1.6 | 0.00 | 0.00 | 0.00 | 25 | 1015.7 |
| 20260504181100 | 26 | 309 | 4.8 | 4.8 | 0.00 | 0.00 | 0.00 | 24 | 1015.7 |
| 20260504180558 | 26 | 106 | 1.6 | 3.2 | 0.00 | 0.00 | 0.00 | 25 | 1016.0 |
| 20260504180057 | 25 | 188 | 1.6 | 3.2 | 0.00 | 0.00 | 0.00 | 27 | 1015.8 |
| 20260504175554 | 25 | 295 | 4.8 | 9.7 | 0.00 | 0.00 | 0.00 | 24 | 1016.1 |
| 20260504175050 | 26 | 312 | 1.6 | 6.4 | 0.00 | 0.00 | 0.00 | 22 | 1016.1 |
| 20260504174549 | 25 | 117 | 1.6 | 3.2 | 0.00 | 0.00 | 0.00 | 23 | 1016.2 |
| 20260504174045 | 25 | 52 | 0.0 | 4.8 | 0.00 | 0.00 | 0.00 | 25 | 1016.4 |
| 20260504173542 | 25 | 8 | 1.6 | 4.8 | 0.00 | 0.00 | 0.00 | 23 | 1016.2 |
| 20260504173040 | 25 | 147 | 0.0 | 1.6 | 0.00 | 0.00 | 0.00 | 24 | 1016.4 |
| 20260504172535 | 24 | 290 | 1.6 | 3.2 | 0.00 | 0.00 | 0.00 | 24 | 1016.4 |
| 20260504172032 | 25 | 332 | 1.6 | 3.2 | 0.00 | 0.00 | 0.00 | 24 | 1016.5 |
| 20260504171529 | 25 | 60 | 0.0 | 3.2 | 0.00 | 0.00 | 0.00 | 23 | 1016.6 |
| 20260504171026 | 25 | 302 | 1.6 | 4.8 | 0.00 | 0.00 | 0.00 | 23 | 1016.4 |
| 20260504170522 | 25 | 169 | 1.6 | 1.6 | 0.00 | 0.00 | 0.00 | 24 | 1016.5 |
| 20260504160442 | 23 | 291 | 4.8 | 4.8 | 0.00 | 0.00 | 0.00 | 26 | 1017.8 |
| 20260504150906 | 23 | 132 | 1.6 | 3.2 | 0.00 | 0.00 | 0.00 | 34 | 1017.7 |
| 20260504150403 | 23 | 117 | 3.2 | 4.8 | 0.00 | 0.00 | 0.00 | 33 | 1017.8 |
| 20260504141332 | 20 | 31 | 1.6 | 3.2 | 0.00 | 0.00 | 0.00 | 42 | 1018.0 |
| 20260504140829 | 20 | 119 | 1.6 | 1.6 | 0.00 | 0.00 | 0.00 | 42 | 1017.8 |
| 20260504140325 | 20 | 75 | 1.6 | 3.2 | 0.00 | 0.00 | 0.00 | 45 | 1017.8 |
| 20260504130754 | 16 | 353 | 0.0 | 0.0 | 0.00 | 0.00 | 0.00 | 54 | 1017.8 |
| 20260504130250 | 15 | 30 | 1.6 | 3.2 | 0.00 | 0.00 | 0.00 | 56 | 1018.0 |
| 20260504120213 | 10 | 199 | 0.0 | 0.0 | 0.00 | 0.00 | 0.00 | 76 | 1017.5 |
| 20260504110641 | 7 | 199 | 0.0 | 0.0 | 0.00 | 0.00 | 0.00 | 83 | 1017.5 |
| 20260504110137 | 7 | 199 | 0.0 | 0.0 | 0.00 | 0.00 | 0.00 | 83 | 1017.4 |
| 20260504100603 | 8 | 199 | 0.0 | 0.0 | 0.00 | 0.00 | 0.00 | 80 | 1017.3 |
| 20260504081956 | 9 | 199 | 0.0 | 0.0 | 0.00 | 0.00 | 0.00 | 75 | 1017.1 |
| 20260504081454 | 9 | 199 | 0.0 | 0.0 | 0.00 | 0.00 | 0.00 | 75 | 1017.0 |
| 20260504080949 | 9 | 199 | 0.0 | 0.0 | 0.00 | 0.00 | 0.00 | 74 | 1016.8 |
| 20260504080446 | 9 | 199 | 0.0 | 0.0 | 0.00 | 0.00 | 0.00 | 74 | 1017.0 |
| 20260504050259 | 11 | 199 | 0.0 | 0.0 | 0.00 | 0.00 | 0.00 | 64 | 1017.3 |
| 20260504045757 | 11 | 199 | 0.0 | 0.0 | 0.00 | 0.00 | 0.00 | 63 | 1017.4 |
| 20260504045256 | 11 | 199 | 0.0 | 0.0 | 0.00 | 0.00 | 0.00 | 63 | 1017.4 |
| 20260504044754 | 11 | 199 | 0.0 | 0.0 | 0.00 | 0.00 | 0.00 | 62 | 1017.4 |
| 20260504044251 | 11 | 199 | 0.0 | 0.0 | 0.00 | 0.00 | 0.00 | 62 | 1017.4 |
| 20260504043748 | 12 | 199 | 0.0 | 0.0 | 0.00 | 0.00 | 0.00 | 61 | 1017.5 |
| 20260504043245 | 12 | 199 | 0.0 | 0.0 | 0.00 | 0.00 | 0.00 | 61 | 1017.5 |
| 20260504042743 | 12 | 199 | 0.0 | 0.0 | 0.00 | 0.00 | 0.00 | 61 | 1017.6 |
| 20260504042239 | 12 | 199 | 0.0 | 0.0 | 0.00 | 0.00 | 0.00 | 60 | 1017.5 |
| 20260504041736 | 12 | 199 | 0.0 | 0.0 | 0.00 | 0.00 | 0.00 | 60 | 1017.8 |
| 20260504041232 | 12 | 199 | 0.0 | 0.0 | 0.00 | 0.00 | 0.00 | 59 | 1017.7 |
| 20260504040728 | 12 | 199 | 0.0 | 0.0 | 0.00 | 0.00 | 0.00 | 59 | 1017.7 |
| 20260504040225 | 12 | 199 | 0.0 | 0.0 | 0.00 | 0.00 | 0.00 | 59 | 1017.5 |
| 20260504035721 | 12 | 199 | 0.0 | 0.0 | 0.00 | 0.00 | 0.00 | 59 | 1017.8 |
| 20260504035219 | 12 | 199 | 0.0 | 0.0 | 0.00 | 0.00 | 0.00 | 58 | 1017.6 |
| 20260504034716 | 12 | 199 | 0.0 | 0.0 | 0.00 | 0.00 | 0.00 | 58 | 1017.6 |
| 20260504034213 | 12 | 199 | 0.0 | 0.0 | 0.00 | 0.00 | 0.00 | 58 | 1017.7 |
| 20260504033711 | 12 | 199 | 0.0 | 0.0 | 0.00 | 0.00 | 0.00 | 58 | 1017.8 |
| 20260504033208 | 12 | 199 | 0.0 | 0.0 | 0.00 | 0.00 | 0.00 | 58 | 1017.7 |
| 20260504032705 | 12 | 199 | 0.0 | 0.0 | 0.00 | 0.00 | 0.00 | 58 | 1017.7 |